Home   Weather   Edinburgh   Past weeks

Flag for United Kingdom Past Weather in Edinburgh, Scotland, United Kingdom — Yesterday and Last 2 Weeks

Now
61 °F

Passing clouds.


Feels Like: 61 °F
Forecast: 49 / 58 °F
Wind: 18 mph from Southwest

Location: Edinburgh Airport

Current Time: Sep 18, 2018 at 6:43:55 pm

Latest Report: Sep 18, 2018 at 5:50 pm


Visibility: N/A

Pressure: 29.45 "Hg

Humidity: 77%

Dew Point: 54 °F

Location of EdinburghLocation

Past Weather in Edinburgh — Graph

°F

Edinburgh Temperature Yesterday

Maximum temperature yesterday: 64 °F (at 5:50 pm)
Minimum temperature yesterday: 48 °F (at 4:50 am)
Average temperature yesterday: 58 °F

High & Low Weather Summary for the Past Weeks

 TemperatureHumidityPressure
High64 °F (Sep 5, 12:50 pm)100% (Sep 3, 6:50 pm)30.27 "Hg (Sep 3, 6:50 pm)
Low37 °F (Sep 5, 6:20 am)52% (Sep 4, 3:50 pm)29.33 "Hg (Sep 18, 6:50 am)
Average54 °F85%29.90 "Hg
* Reported Sep 3 5:20 pm — Sep 18 5:20 pm, Edinburgh. Weather by CustomWeather, © 2018

Note: Actual official high and low records may vary slightly from our data, if they occured in-between our weather recording intervals... More about our weather records

Advertising

Edinburgh Weather History for the Previous 24 Hours

Scroll right to see more
 ConditionsComfort  
Time TempWeatherWind HumidityBarometerVisibility
5:20 pm
Tue, Sep 18
63 °FPartly sunny.21 mph73%29.45 "HgN/A
4:50 pm64 °FScattered clouds.17 mph68%29.42 "HgN/A
4:20 pm64 °FScattered clouds.21 mph68%29.42 "HgN/A
3:50 pm64 °FScattered clouds.25 mph68%29.42 "HgN/A
3:20 pm63 °FScattered clouds.22 mph77%29.42 "HgN/A
2:50 pm63 °FScattered clouds.23 mph83%29.42 "HgN/A
2:20 pm64 °FScattered clouds.21 mph83%29.39 "HgN/A
1:50 pm63 °FLight rain. Partly sunny.20 mph94%29.36 "HgN/A
1:20 pm64 °FPartly sunny.15 mph88%29.36 "HgN/A
12:50 pm63 °FPartly sunny.9 mph100%29.33 "HgN/A
12:20 pm61 °FScattered showers. Partly sunny.3 mph100%29.33 "HgN/A
11:50 am59 °FLight rain. Partly sunny.1 mph100%29.33 "Hg5 mi
11:20 am59 °FLight rain. Partly sunny.3 mph100%29.33 "Hg4 mi
10:50 am59 °FScattered clouds.6 mph100%29.33 "Hg5 mi
10:20 am59 °FScattered clouds.6 mph100%29.33 "Hg6 mi
9:50 am59 °FFog.5 mph100%29.33 "Hg4 mi
9:20 am59 °FFog.7 mph100%29.33 "Hg5 mi
8:50 am59 °FFog.6 mph100%29.33 "Hg5 mi
8:20 am57 °FLight rain. Partly sunny.5 mph100%29.33 "Hg6 mi
7:50 am57 °FLight rain. Partly sunny.5 mph100%29.33 "Hg3 mi
7:20 am57 °FLight rain. Scattered clouds.3 mph100%29.33 "Hg6 mi
6:50 am57 °FLight rain. Scattered clouds.6 mph94%29.33 "Hg6 mi
6:20 am59 °FLight rain. Passing clouds.3 mph88%29.36 "HgN/A
5:50 am61 °FLight rain. Passing clouds.2 mph83%29.36 "HgN/A
5:20 am63 °FPassing clouds.2 mph77%29.36 "HgN/A
4:50 am63 °FPassing clouds.5 mph77%29.39 "HgN/A
4:20 am63 °FClear.12 mph77%29.39 "Hg10 mi
3:50 am63 °FPassing clouds.10 mph77%29.42 "HgN/A
3:20 am63 °FClear.14 mph73%29.42 "Hg10 mi
2:50 am61 °FClear.9 mph77%29.45 "Hg10 mi
2:20 am63 °FClear.14 mph73%29.45 "Hg10 mi
1:50 am63 °FPassing clouds.17 mph73%29.47 "HgN/A
1:20 am63 °FClear.17 mph73%29.47 "Hg10 mi
12:50 am63 °FPassing clouds.17 mph73%29.47 "HgN/A
12:20 am63 °FClear.21 mph73%29.47 "Hg10 mi
11:50 pm
Mon, Sep 17
63 °FPassing clouds.25 mph73%29.47 "HgN/A
11:20 pm63 °FPassing clouds.23 mph73%29.50 "HgN/A
10:50 pm64 °FPassing clouds.26 mph68%29.50 "HgN/A
9:50 pm64 °FPassing clouds.23 mph78%29.50 "HgN/A
9:20 pm64 °FPassing clouds.23 mph78%29.50 "HgN/A
8:50 pm64 °FPassing clouds.17 mph78%29.50 "HgN/A
8:20 pm64 °FPassing clouds.18 mph78%29.53 "HgN/A
7:50 pm64 °FPassing clouds.21 mph78%29.53 "HgN/A
7:20 pm64 °FScattered clouds.18 mph78%29.53 "HgN/A
6:50 pm64 °FScattered clouds.20 mph78%29.53 "HgN/A
6:20 pm64 °FScattered clouds.16 mph83%29.53 "HgN/A
Weather by CustomWeather, © 2018

See weather overview